Volver al catálogo

SL-14 DEB

ActivoPO
NORAD 27639·DEBRIS·🇷🇺 Russia

Lanzado Aug 18, 1987 desde Plesetsk Cosmodrome

Loading…

Próximos Pases (próximas 24 horas)

TLE

ActualizadoSource: Space-Track

Época: Sep 13, 2026, 01:47 UTC

1 27639U 87068CM  26256.07443591  .00000124  00000-0  11948-3 0  9993
2 27639  82.5125   2.5288 0065503 241.4962 295.3121 13.72317083653242

Sigue SL-14 DEB en tiempo real con AllMySat

Download on the App Store